Regional Weather Roundup
Issued by NWS

Home | Current Version | Previous Version | Text Only | Print | Product List | Glossary On
Versions: 1 2 3 4 5 6 7 8 9 10 11 12 13 14 15 16 17 18 19 20 21 22 23 24 25 26 27 28 29 30 31 32 33 34 35 36 37 38 39 40 41 42 43 44 45 46 47 48 49 50
000
ASUS43 KMKX 220500
RWRWI

WISCONSIN REGIONAL WEATHER ROUNDUP
NATIONAL WEATHER SERVICE MILWAUKEE/SULLIVAN WI
1200 AM CDT SUN OCT 22 2017

NOTE: "FAIR" INDICATES FEW OR NO CLOUDS BELOW 12,000 FEET WITH NO
SIGNIFICANT WEATHER AND/OR OBSTRUCTIONS TO VISIBILITY.

WIZ001-002-006>008-014>016-023>028-220600-
NORTHWEST WISCONSIN

CITY           SKY/WX    TMP DP  RH WIND       PRES   REMARKS
SUPERIOR ARPT  CLOUDY    55  53  93 SW12G18   29.71R
ASHLAND        LGT RAIN  63  60  90 S9        29.70F
HAYWARD        LGT RAIN  64  59  83 SW17G25   29.75R
SIREN          CLOUDY    54  51  91 SW10      29.79R
CUMBERLAND     LGT RAIN  52  50  93 W10       29.80R
RICE LAKE      CLOUDY    55  51  86 W10       29.81R
CHETEK         CLOUDY    57  56  95 W5        29.80R
LADYSMITH      LGT RAIN  62  60  91 S10G18    29.81R
EAU CLAIRE     LGT RAIN  61  59  94 SW12G20   29.80R FOG
MENOMONIE      CLOUDY    55  55 100 W9G20     29.82R
NEW RICHMOND   NOT AVBL
OSCEOLA        CLOUDY    54  54 100 W9G16     29.84R
$$

WIZ003>005-009-010-017-018-220600-
NORTH CENTRAL WISCONSIN

CITY           SKY/WX    TMP DP  RH WIND       PRES   REMARKS
MANITOWISH WTR LGT RAIN  65  59  79 S13G20    29.78F
ARBOR VITAE    LGT RAIN  67  58  72 S13       29.80S
WOODRUFF       LGT RAIN  67  58  72 S13       29.80S
RHINELANDER    CLOUDY    67  58  72 S12G21    29.83S
EAGLE RIVER    NOT AVBL
LAND O LAKES   CLOUDY    67  56  65 S13G18    29.83S
PHILLIPS       LGT RAIN  65  57  76 S18G30    29.81R
TOMAHAWK       CLOUDY    65  56  72 S5        29.82S
MEDFORD        TSTM      60  58  92 SW6       29.83R
MERRILL        CLOUDY    68  58  71 S12G17    29.84R
$$

WIZ029-030-035-036-043>047-220600-
CENTRAL WISCONSIN

CITY           SKY/WX    TMP DP  RH WIND       PRES   REMARKS
WAUSAU         CLOUDY    67  58  72 S17G25    29.82F
MOSINEE        CLOUDY    64  59  82 S17       29.85S
MARSHFIELD     CLOUDY    67  58  72 SW25G35   29.84R
STEVENS POINT  CLOUDY    66  58  74 S12G17    29.85F
WAUPACA        CLOUDY    69  59  69 S9        29.88R
WAUTOMA        PTCLDY   N/A N/A N/A S12       29.86F
WISC RAPIDS    CLOUDY    70  60  70 S13G24    29.83F
CAMP DOUGLAS   NOT AVBL
$$

WIZ011>013-019>022-031-037>040-048>050-220600-
NORTHEAST WISCONSIN

CITY           SKY/WX    TMP DP  RH WIND       PRES   REMARKS
ANTIGO         CLOUDY    65  56  74 S16       29.87S
SHAWANO        PTCLDY    66  57  73 S3        29.88R
OCONTO         CLEAR     63  57  80 S10       29.89S
STURGEON BAY   MOCLDY    62  57  83 S20G28    29.92S
GREEN BAY      CLEAR     66  59  78 S14G23    29.90S
MANITOWOC      PTCLDY    60  55  83 S18       29.94S
APPLETON       CLOUDY    63  54  72 SE10      29.89R
CLINTONVILLE   PTCLDY    66  55  68 S9        29.88R
OSHKOSH        CLOUDY    67  58  72 S17       29.89S
$$

WIZ032>034-041-042-053>061-220600-
SOUTHWEST WISCONSIN

CITY           SKY/WX    TMP DP  RH WIND       PRES   REMARKS
LA CROSSE      RAIN      62  61  96 S14       29.81S
SPARTA         RAIN      61  60  97 SW3       29.84R
VIROQUA        CLOUDY    60  60 100 SW10G18   29.85F VSB 1/2
BOSCOBEL       TSTM      66  58  75 SW17G32   29.88R
PRAIRIE DU CHI HVY RAIN  61  58  90 S6        29.89R
PLATTEVILLE    CLOUDY    69  61  76 S18       29.87F
$$

WIZ056-057-062-063-064-067-068-220600-
SOUTH CENTRAL WISCONSIN

CITY           SKY/WX    TMP DP  RH WIND       PRES   REMARKS
REEDSBURG      MOCLDY    69  60  72 S14G21    29.85F
BARABOO/DELLS  MOCLDY    68  57  68 S14G26    29.86F
LONE ROCK      NOT AVBL
MINERAL POINT  LGT RAIN  68  63  83 S13G18    29.88F
MADISON        MOCLDY    69  59  70 S16       29.89F
MIDDLETON      CLOUDY    70  58  67 S15       29.90S
WATERTOWN      PTCLDY    68  60  75 S16G26    29.92F
MONROE         CLOUDY    70  55  60 S17G25    29.91F
JANESVILLE     PTCLDY    70  55  60 S14G22    29.93S
$$

WIZ051-052-058>065-066-070>072-220600-
SOUTHEAST WISCONSIN

CITY           SKY/WX    TMP DP  RH WIND       PRES   REMARKS
MILWAUKEE      PTCLDY    68  58  70 S10       29.96F
WAUKESHA       CLEAR     64  55  72 S14G22    29.97S
MILWAUKEE/TIMM PTCLDY    68  54  60 S8        29.97S
RACINE         CLOUDY    63  57  81 S12       29.99S
BURLINGTON     CLEAR     67  58  74 S10G21    29.96F
KENOSHA        CLOUDY    68  56  65 S13       29.98S
FOND DU LAC    PTCLDY    69  56  62 S15G23    29.90F
SHEBOYGAN      CLOUDY    61  58  90 S12       29.94S
WEST BEND      MOCLDY    66  55  68 S12       29.95R
JUNEAU         CLOUDY    69  58  68 S18G25    29.93S
$$

LSZ147-162-220600-
LAKE SUPERIOR

STATION/POSITION TIME  TEMP    WIND        PRES    WAVE
                       AIR SEA DIR/SP/G            HT/PER
                 (UTC) (F)     (DEG/KT/KT) (MB)    (FT/S)
W MID LAKE BUOY  0350   58 52              1005.8F   1/ 4
DEVILS ISLAND    0400   65     170/ 12/ 16 1005.2F
SAXON HARBOR     0440   70     190/  3/ 10 1005.4F
$$

LMZ867-665-643>646-220600-
LAKE MICHIGAN

STATION/POSITION TIME  TEMP    WIND        PRES    WAVE
                       AIR SEA DIR/SP/G            HT/PER
                 (UTC) (F)     (DEG/KT/KT) (MB)    (FT/S)
S GREEN BAY BUOY 0430   63 58  170/ 17/ 21 1012.2R
N MID LAKE BUOY  0350   64 58  170/ 21/ 25 1013.6F   6/ 6
NORTHPORT PIER   0440   60     160/ 12/ 18 1013.5R
KEWAUNEE LAKESHO 0430   56     180/ 13/ 16 1012.9R
SHEBOYGAN LAKESH 0400   56     180/ 18/ 18 1013.9F
PORT WASHINGTON  0440   56     200/  4/ 10 1015.6R
ATWATER BUOY     0309   58 52  160/ 16/ 19 1014.5S
MILWAUKEE LAKESH 0430   58     150/  7/  8   N/A
S MID LAKE BUOY  0350   64 61  160/ 17/ 21 1016.1S   3/ 4
KENOSHA   LAKESH 0400   60     170/ 19/ 19 1015.2
$$

TC  - TEMPERATURE IN CELSIUS
VSB - VISIBILITY IN STATUTE MILES
WCI - WIND CHILL INDEX
HX  - HEAT INDEX




USA.gov is the U.S. government's official web portal to all federal, state and local government web resources and services.